カタログに戻る

YAM-5

運用中通信SSO
NORAD 55076·PAYLOAD·🇺🇸 United States

打ち上げ Jan 3, 2023 から Cape Canaveral Space Force Station

Loading…

次のパス (今後24時間)

TLE

最新Source: Space-Track

元期: Sep 14, 2026, 14:27 UTC

1 55076U 23001BV  26257.60274544  .00008993  00000-0  22580-3 0  9992
2 55076  97.3102 320.5611 0009476 138.6500 221.5466 15.40181953205868

AllMySatでYAM-5をリアルタイム追跡

Download on the App Store